Rome, GA

9:12 PM EST on November 12, 2019 (GMT -0500)
Russell

Weather History for KRMG - September, 2019

Change the Weather History Date:

Wednesday, September 11, 2019

  Actual Average Record
Temperature  
Mean Temperature 82 °F 74 °F  
Max Temperature 95 °F 85 °F 98 °F (2002)
Min Temperature 70 °F 62 °F 7 °F (1996)
Degree Days  
Heating Degree Days 0 0  
Month to date heating degree days 0  
Since 1 July heating degree days 0  
Cooling Degree Days 16 9  
Month to date cooling degree days 111  
Year to date cooling degree days 1477  
Growing Degree Days 32 (Base 50)    
Moisture  
Dew Point 68 °F    
Average Humidity 70    
Maximum Humidity 93    
Minimum Humidity 40    
Precipitation  
Precipitation 0.00 in 0.11 in 2.98 in (2017)
Month to date precipitation 1.05  
Year to date precipitation 36.47  
Sea Level Pressure  
Sea Level Pressure 30.18 in    
Wind  
Wind Speed 1 mph ()    
Max Wind Speed 8 mph    
Max Gust Speed -    
Visibility 8.7 miles    
Events      
T = Trace of Precipitation, MM = Missing Value Source: Averaged Metar Reports

Daily Weather History Graph

Daily Weather History Graph

Search for Another Location

Airport or City:

Astronomy

Sep. 11, 2019 Rise Set
Actual Time 7:20 AM EDT 7:53 PM EDT
Civil Twilight 6:55 AM EDT 8:18 PM EDT
Nautical Twilight 6:25 AM EDT 8:48 PM EDT
Astronomical Twilight 5:55 AM EDT 9:18 PM EDT
Moon 6:57 PM EDT (9/11) 4:52 AM EDT (9/11)
Length of Visible Light 13h 22m
Length of Day
12h 32m
Waxing Gibbous, 94% of the Moon is Illuminated
Sep 11
Waxing Gibbous
Sep 14
Full
Sep 21
Last Quarter
Sep 28
New
Oct 5
First Quarter

Hourly Weather History & Observations

Time (EDT) Temp. Heat Index Dew Point Humidity Pressure Visibility Wind Dir Wind Speed Gust Speed Precip Events Conditions
12:53 AM 73.9 °F - 69.1 °F 85% 30.20 in 10.0 mi North - - N/A   Clear
1:53 AM 72.0 °F - 69.1 °F 91% 30.19 in 9.0 mi Calm Calm - N/A   Clear
2:53 AM 71.1 °F - 68.0 °F 90% 30.19 in 6.0 mi Calm Calm - N/A   Clear
3:53 AM 71.1 °F - 68.0 °F 90% 30.19 in 5.0 mi Calm Calm - N/A   Clear
4:53 AM 70.0 °F - 68.0 °F 93% 30.20 in 6.0 mi Calm Calm - N/A   Clear
5:53 AM 70.0 °F - 68.0 °F 93% 30.21 in 6.0 mi Calm Calm - N/A   Clear
6:53 AM 70.0 °F - 66.9 °F 90% 30.23 in 6.0 mi Calm Calm - N/A   Clear
7:53 AM 70.0 °F - 66.9 °F 90% 30.25 in 5.0 mi Calm Calm - N/A   Clear
8:53 AM 73.9 °F - 69.1 °F 85% 30.27 in 7.0 mi NE 3.5 mph - N/A   Clear
9:53 AM 78.1 °F - 70.0 °F 76% 30.27 in 9.0 mi Calm Calm - N/A   Clear
10:53 AM 82.0 °F 85.9 °F 70.0 °F 67% 30.27 in 10.0 mi Variable 3.5 mph - N/A   Clear
11:53 AM 86.0 °F 92.2 °F 72.0 °F 63% 30.25 in 10.0 mi Calm Calm - N/A   Clear
12:53 PM 89.1 °F 94.1 °F 70.0 °F 53% 30.23 in 10.0 mi Calm Calm - N/A   Clear
1:53 PM 91.0 °F 95.6 °F 69.1 °F 48% 30.20 in 10.0 mi Variable 3.5 mph - N/A   Clear
2:53 PM 93.9 °F 99.1 °F 69.1 °F 44% 30.17 in 10.0 mi South 8.1 mph - N/A   Clear
3:53 PM 93.9 °F 97.0 °F 66.0 °F 40% 30.14 in 10.0 mi Variable 3.5 mph - N/A   Clear
4:53 PM 93.9 °F 97.5 °F 66.9 °F 41% 30.12 in 10.0 mi Calm Calm - N/A   Clear
5:53 PM 91.9 °F 95.9 °F 68.0 °F 45% 30.10 in 10.0 mi Calm Calm - N/A   Clear
6:53 PM 89.1 °F 92.9 °F 68.0 °F 50% 30.10 in 10.0 mi West 4.6 mph - N/A   Clear
7:53 PM 86.0 °F 88.2 °F 66.0 °F 51% 30.11 in 10.0 mi NW 5.8 mph - N/A   Mostly Cloudy
8:53 PM 81.0 °F 83.8 °F 68.0 °F 65% 30.12 in 10.0 mi Calm Calm - N/A   Clear
9:53 PM 80.1 °F 82.7 °F 68.0 °F 67% 30.12 in 10.0 mi Calm Calm - N/A   Clear
10:53 PM 75.9 °F - 70.0 °F 82% 30.13 in 10.0 mi Calm Calm - N/A   Clear
11:53 PM 73.9 °F - 68.0 °F 82% 30.13 in 10.0 mi Calm Calm - N/A   Clear